Terug naar catalogus

ARIANE 5 DEB

SYLDA

ActiefHEO
NORAD 41750·DEBRIS·🇫🇷 France

Gelanceerd Aug 24, 2016 vanaf Guiana Space Centre

Loading…

Volgende Passages (komende 24 uur)

TLE

VersSource: Space-Track

Epoch: Sep 14, 2026, 12:59 UTC

1 41750U 16053D   26257.54102040  .00007417  00000-0  25856-2 0  9997
2 41750   6.0709 100.6979 5764855 201.4019 118.8346  4.35903694112187

Volg ARIANE 5 DEB in realtime met AllMySat

Download on the App Store